Location: Gandikunta
(16.3784°N, 80.8378°E)
Time: 14:48:35
(UTC+00:00)

SL-16 R/B - Pass Details

Date: 19 May 2025
Orbit: 985 x 1006 km, 99.7° (Epoch: 18 June)

Event Time Altitude Azimuth Distance (km) Brightness Sun altitude
Exits shadow 22:48:38 - 187° (S) 3,118 4.8 -17.5°
Reaches altitude 10° 22:49:42 10° 190° (S) 2,735 4.5 -17.3°
Maximum altitude 22:55:23 40° 258° (WSW) 1,411 2.9 -16.1°
Drops below altitude 10° 23:01:06 10° 327° (NNW) 2,737 4.8 -14.9°
Sets 23:03:44 0° 334° (NNW) 3,687 5.5 -14.3°
